This is the latest recevied weather packets stored in our database for station/object K5UTC. If no packets are shown the sender has not sent any weather packets the latest 10 day(s).
| Time | Temp. | Humidity | Pressure | Rain* | Wind** | Luminosity | Snow |
|---|---|---|---|---|---|---|---|
| 1778250813 | 19.44° C | 45% | 1017 hPa | 0 mm | - | 555 W/m² | - |
| 1778250510 | 19.44° C | 45% | 1016.7 hPa | 0 mm | - | 540 W/m² | - |
| 1778250206 | 20° C | 46% | 1017 hPa | 0 mm | - | 526 W/m² | - |
| 1778249903 | 20° C | 42% | 1017 hPa | 0 mm | - | 510 W/m² | - |
| 1778249600 | 20.56° C | 49% | 1016.8 hPa | 0 mm | - | 495 W/m² | - |
| 1778249297 | 20° C | 49% | 1016.8 hPa | 0 mm | - | 478 W/m² | - |
| 1778248994 | 20.56° C | 49% | 1016.8 hPa | 0 mm | - | 464 W/m² | - |
| 1778248690 | 19.44° C | 50% | 1016.8 hPa | 0 mm | - | 446 W/m² | - |
| 1778248386 | 19.44° C | 47% | 1017 hPa | 0 mm | - | 433 W/m² | - |
| 1778248082 | 18.89° C | 52% | 1017 hPa | 0 mm | - | 416 W/m² | - |
| 1778247780 | 18.89° C | 51% | 1016.8 hPa | 0 mm | - | 397 W/m² | - |
| 1778247476 | 18.33° C | 55% | 1016.8 hPa | 0 mm | - | 382 W/m² | - |
| 1778247174 | 17.78° C | 52% | 1016.7 hPa | 0 mm | - | 362 W/m² | - |
| 1778246871 | 17.78° C | 55% | 1016.7 hPa | 0 mm | - | 334 W/m² | - |
| 1778246569 | 17.22° C | 58% | 1016.7 hPa | 0 mm | - | 302 W/m² | - |
| 1778246264 | 17.78° C | 59% | 1016.8 hPa | 0 mm | - | 262 W/m² | - |
| 1778245961 | 17.22° C | 57% | 1016.7 hPa | 0 mm | - | 226 W/m² | - |
| 1778245657 | 17.78° C | 59% | 1016.6 hPa | 0 mm | - | 198 W/m² | - |
| 1778245355 | 17.78° C | 69% | 1016.6 hPa | 0 mm | - | 172 W/m² | - |
| 1778245050 | 17.78° C | 69% | 1016.5 hPa | 0 mm | - | 154 W/m² | - |
| 1778244747 | 18.33° C | 69% | 1016.7 hPa | 0 mm | - | 134 W/m² | - |
| 1778244445 | 18.33° C | 68% | 1016.5 hPa | 0 mm | - | 118 W/m² | - |
| 1778244142 | 17.22° C | 77% | 1016.7 hPa | 0 mm | - | 105 W/m² | - |
| 1778243840 | 16.11° C | 79% | 1016.7 hPa | 0 mm | - | 96 W/m² | - |
| 1778243538 | 16.11° C | 78% | 1016.7 hPa | 0 mm | - | 87 W/m² | - |
* Rain latest hour (hover to see other rain measurements)
** Current wind speed in m/s (hover to see current wind gust speed)